This is the latest recevied weather packets stored in our database for station/object IW1CGW-23. If no packets are shown the sender has not sent any weather packets the latest 10 day(s).
| Time | Temp. | Humidity | Pressure | Rain* | Wind** | Luminosity | Snow |
|---|---|---|---|---|---|---|---|
| 1777757741 | 15° C | 55% | 1022.2 hPa | - | - | - | - |
| 1777756179 | 15° C | 55% | 1022.3 hPa | - | - | - | - |
| 1777754616 | 15.56° C | 54% | 1022.5 hPa | - | - | - | - |
| 1777753835 | 15.56° C | 54% | 1022.5 hPa | - | - | - | - |
| 1777751490 | 15.56° C | 54% | 1022.5 hPa | - | - | - | - |
| 1777746799 | 17.22° C | 51% | 1022.1 hPa | - | - | - | - |
| 1777746017 | 17.78° C | 51% | 1022.1 hPa | - | - | - | - |
| 1777743668 | 18.33° C | 50% | 1022.2 hPa | - | - | - | - |
| 1777741318 | 18.89° C | 49% | 1022.3 hPa | - | - | - | - |
| 1777740535 | 19.44° C | 48% | 1022.5 hPa | - | - | - | - |
| 1777735833 | 18.89° C | 49% | 1023.2 hPa | - | - | - | - |
| 1777735048 | 18.89° C | 49% | 1023.3 hPa | - | - | - | - |
| 1777732697 | 19.44° C | 47% | 1023.7 hPa | - | - | - | - |
| 1777731128 | 19.44° C | 46% | 1024.1 hPa | - | - | - | - |
| 1777730349 | 18.89° C | 46% | 1024.4 hPa | - | - | - | - |
| 1777729565 | 19.44° C | 46% | 1024.7 hPa | - | - | - | - |
| 1777728782 | 18.89° C | 46% | 1024.8 hPa | - | - | - | - |
| 1777728781 | 18.89° C | 46% | 1024.8 hPa | - | - | - | - |
| 1777724863 | 18.89° C | 46% | 1025.2 hPa | - | - | - | - |
| 1777720939 | 21.11° C | 43% | 1025.9 hPa | - | - | - | - |
| 1777719366 | 21.11° C | 42% | 1026.1 hPa | - | - | - | - |
| 1777717002 | 22.22° C | 41% | 1026.5 hPa | - | - | - | - |
| 1777714640 | 22.78° C | 40% | 1026.6 hPa | - | - | - | - |
| 1777713066 | 23.33° C | 40% | 1026.8 hPa | - | - | - | - |
| 1777707558 | 26.11° C | 44% | 1027 hPa | - | - | - | - |
* Rain since midnight (hover to see other rain measurements)
** Current wind speed in m/s (hover to see current wind gust speed)